Wind_Speed
22 22 22 22 22 23 22 22 22 22 22 22 21 20 19 20 20 19 18 18 19 20 20 20 21 23 24 25 25 27 29 30 31 33 34 36 37 37 38 38 39 40 41
19 21 23 22 22 21 22 21 20 20 22 22 21 20 20 20 20 20 19 19 20 20 21 22 23 23 25 25 27 29 30 31 32 33 34 36 36 37 37 38 39 39 38
18 19 20 20 20 20 21 21 20 19 19 20 20 20 20 21 21 21 20 21 21 22 22 23 24 25 27 28 29 30 31 31 32 33 34 35 35 36 37 37 37 36 35
17 17 18 19 19 19 20 19 19 19 19 19 20 20 20 20 20 21 21 22 23 23 24 25 26 27 28 29 30 30 31 32 32 33 34 34 35 35 35 35 34 33 32
16 17 18 18 18 18 18 19 19 19 19 20 20 20 20 20 21 21 22 23 23 24 25 26 27 27 28 28 29 30 31 31 32 32 33 33 33 33 32 32 31 29 28
17 17 17 17 18 19 18 19 19 20 20 20 20 20 21 22 22 23 23 23 23 24 25 26 26 27 28 28 29 30 30 30 31 32 32 32 31 30 29 28 27 26 24
15 15 16 17 18 18 18 17 18 19 19 21 21 22 22 22 23 23 23 23 23 24 25 25 26 27 27 28 28 28 29 30 30 30 29 29 28 27 26 25 24 23 22
14 15 15 16 16 16 17 17 17 18 19 20 20 20 21 21 22 22 21 22 23 24 25 25 26 26 26 27 27 28 28 28 28 27 26 26 25 24 23 22 21 20 20
13 14 15 15 16 16 17 17 17 17 18 19 19 19 19 20 20 21 21 22 23 23 24 24 25 25 25 25 26 26 25 25 25 24 23 23 22 21 20 19 19 19 18
11 12 12 13 14 15 15 15 15 16 17 17 16 16 17 17 18 19 20 20 21 22 22 23 23 23 23 23 23 23 22 22 21 20 20 20 19 18 18 17 17 17 17
9 10 11 12 12 13 13 14 14 14 13 13 14 14 15 16 17 18 18 19 20 20 20 20 20 20 21 21 21 20 19 19 18 18 18 17 17 16 16 16 16 16 16
9 10 11 10 11 11 11 11 12 12 11 12 12 13 14 14 15 16 16 17 17 18 18 18 18 18 18 18 18 18 17 17 17 16 16 16 15 15 15 15 15 14 14
7 8 9 9 10 10 10 10 10 10 10 10 11 12 13 13 14 14 15 15 15 15 16 16 16 16 16 16 16 16 16 15 15 15 15 15 14 14 14 14 14 13 12
6 6 7 7 7 7 7 8 8 8 8 9 9 10 10 11 11 12 13 13 13 13 14 14 14 14 14 14 14 14 14 14 14 14 14 14 13 13 13 13 12 12 11
4 5 5 6 6 6 6 7 6 6 6 7 8 8 8 9 10 10 11 11 11 12 12 12 12 12 13 13 13 13 13 13 13 13 13 12 12 11 11 11 10 9 8
3 3 3 3 4 4 4 4 4 4 5 5 6 7 7 8 8 9 9 9 9 10 10 10 11 11 12 12 12 12 12 12 12 12 11 11 10 9 9 8 8 7 7
2 2 2 2 2 3 2 3 3 3 4 5 5 5 6 6 6 6 6 7 7 8 8 9 9 10 10 10 11 11 11 11 10 10 10 9 8 7 7 7 6 6 5
2 2 2 2 1 1 1 1 1 2 2 2 2 2 3 3 3 3 4 5 5 6 7 7 8 8 9 9 9 9 9 8 8 8 7 6 6 6 5 5 5 4 3
4 4 4 3 3 2 2 1 1 1 1 2 2 3 3 3 3 3 3 4 4 5 5 6 7 7 7 7 8 7 7 7 6 6 5 4 4 4 3 3 3 3 3
6 6 5 5 4 4 4 4 4 4 4 4 4 4 4 4 4 4 5 5 5 5 6 6 6 6 7 7 6 6 5 5 4 4 3 3 2 2 2 2 2 3 3
7 7 7 7 7 6 6 6 6 6 6 6 6 6 6 6 7 7 7 7 7 7 7 7 7 7 7 6 6 6 5 5 4 4 3 3 3 3 3 3 3 3 4
10 9 9 8 8 8 8 8 8 8 8 8 8 8 8 9 9 9 9 10 10 9 9 9 9 9 8 8 7 7 6 6 6 6 5 5 4 4 4 4 4 4 4
13 12 12 11 11 11 11 11 11 11 10 10 10 10 10 10 10 11 11 11 11 11 11 11 11 11 11 10 10 9 9 8 8 7 7 6 6 6 5 5 5 5 5
14 14 14 14 14 14 14 13 13 12 12 11 11 11 11 11 11 11 12 12 12 12 12 12 13 12 12 12 11 11 10 10 9 9 8 8 7 7 6 6 6 6 6
16 16 16 16 16 16 15 14 14 13 13 12 11 11 11 11 11 11 12 12 12 12 13 13 13 12 12 12 11 11 11 10 9 9 8 8 7 7 6 6 6 7 7
18 18 18 17 17 17 16 15 15 14 14 13 12 12 11 11 11 11 11 11 12 12 12 12 12 12 11 11 10 10 10 9 9 8 7 7 7 6 7 7 8 9 9
Wind_Direction
251 249 248 248 249 247 242 241 238 241 244 246 250 250 249 253 256 257 261 262 262 264 268 271 272 272 276 278 281 285 288 289 291 293 294 295 296 296 297 298 299 300 300
252 249 248 249 249 246 243 245 243 242 242 244 248 249 250 255 256 258 260 261 263 267 270 273 275 277 280 282 284 287 289 291 293 294 295 296 297 297 298 299 300 300 300
253 250 248 246 244 243 240 241 245 247 246 247 249 250 253 256 259 260 262 264 267 269 272 274 276 280 283 285 287 290 291 293 294 294 295 296 297 298 299 299 299 300 301
253 248 244 243 242 241 238 239 243 245 247 249 250 251 254 258 261 262 265 267 268 270 273 276 279 282 284 286 289 291 292 293 293 294 296 297 297 298 298 299 300 300 301
248 246 242 239 238 236 236 237 240 243 245 248 250 252 255 258 262 264 266 268 269 272 274 278 280 283 285 287 288 290 291 292 293 295 296 296 297 298 298 299 300 301 301
240 239 235 233 234 232 234 238 240 241 245 247 250 253 256 259 262 265 267 269 271 274 277 280 281 284 286 287 289 290 291 292 294 295 296 296 297 298 298 300 301 302 302
237 236 234 232 232 232 234 236 239 242 246 248 249 252 254 256 260 263 265 269 271 274 278 280 282 284 286 287 289 290 291 293 294 295 295 295 296 297 298 299 300 301 302
238 236 235 234 233 234 234 239 244 245 246 248 247 251 255 258 260 263 266 268 270 274 278 279 281 283 285 288 289 291 292 294 295 296 295 295 296 297 298 298 299 300 301
235 235 234 235 236 236 238 240 242 246 246 247 251 255 258 261 262 262 263 267 271 274 277 279 281 283 286 289 291 292 294 296 297 297 297 297 298 298 298 299 300 301 301
230 229 230 231 233 232 233 237 241 246 247 248 252 257 259 260 263 266 267 270 272 275 278 280 282 285 287 289 292 294 295 296 297 298 299 299 299 299 299 300 303 303 302
226 226 229 230 231 234 238 242 244 246 247 248 254 258 260 261 263 266 270 273 276 279 281 282 284 287 289 291 293 294 295 296 296 298 299 300 300 299 301 302 304 304 304
225 225 226 228 232 236 240 243 243 244 248 252 256 260 261 263 265 269 273 276 280 282 283 284 286 288 290 291 293 295 295 295 296 297 299 301 301 300 302 303 303 303 304
222 220 220 225 227 230 234 236 237 242 251 254 257 260 264 267 271 274 277 278 280 282 285 286 287 289 291 293 295 296 296 297 298 299 301 302 302 302 302 303 303 302 304
218 219 221 218 218 222 227 234 239 245 252 256 261 266 270 274 277 278 278 279 280 282 283 285 288 290 291 293 295 297 298 299 300 300 301 302 301 302 302 303 303 303 303
212 215 217 219 226 231 238 242 247 253 261 268 273 276 277 278 280 281 280 281 282 284 286 288 290 292 293 295 297 299 300 300 301 301 301 300 299 300 302 304 305 306 307
188 195 202 205 215 228 237 244 254 265 273 280 284 284 284 284 284 285 285 284 287 289 290 292 294 295 297 300 302 302 301 301 301 300 300 299 298 299 301 304 307 309 308
169 183 196 204 213 225 234 246 264 276 287 292 292 291 290 290 291 292 292 295 296 297 298 301 302 303 304 305 305 304 304 303 302 301 301 299 298 299 302 306 311 313 312
132 144 149 153 155 165 209 263 288 304 316 322 324 326 325 325 326 323 319 315 313 314 315 314 313 312 311 311 310 310 309 307 306 305 305 302 302 303 306 313 320 325 327
104 108 112 110 101 95 88 83 82 77 64 64 60 48 39 31 21 10 359 350 346 342 336 331 328 325 324 324 323 321 319 316 315 314 312 309 308 312 321 332 343 352 356
93 94 95 94 94 93 91 91 93 94 92 87 76 65 59 55 50 42 31 21 14 6 358 355 352 349 345 342 341 340 340 340 339 339 339 341 345 351 1 14 25 27 19
89 92 93 91 92 92 92 93 95 96 93 89 82 77 72 66 59 53 47 41 36 31 26 22 16 11 8 8 9 11 13 17 22 26 29 30 34 45 50 51 49 36 22
89 90 90 90 91 92 93 95 96 95 92 89 85 79 74 69 65 61 56 53 49 44 40 37 34 33 34 36 39 42 44 46 48 51 53 54 56 59 62 60 51 37 25
87 87 89 91 93 94 95 95 95 93 91 89 85 80 76 72 68 64 60 56 53 50 49 47 47 48 50 52 54 54 54 54 56 57 59 60 61 59 55 50 43 36 26
86 86 88 91 93 93 93 93 93 91 89 87 84 81 78 75 71 67 63 60 57 55 54 53 53 54 55 56 57 56 56 56 57 58 59 60 57 53 48 43 36 28 18
86 87 88 90 90 90 90 90 90 89 87 85 83 81 79 76 72 67 63 60 58 56 54 54 53 54 54 55 54 54 53 53 53 53 52 50 46 41 35 28 20 11 1
87 87 87 88 88 88 89 88 87 86 85 84 81 79 77 75 70 65 61 58 56 55 53 52 52 50 49 48 47 46 45 43 42 40 37 31 24 16 9 3 357 350 345
Height
5747 5749 5752 5754 5757 5759 5761 5764 5766 5768 5770 5772 5774 5776 5778 5779 5780 5781 5782 5782 5783 5783 5784 5784 5784 5784 5784 5784 5783 5782 5780 5779 5777 5775 5772 5769 5766 5763 5759 5755 5751 5747 5742
5741 5743 5746 5748 5751 5753 5755 5758 5760 5762 5764 5766 5768 5770 5771 5773 5774 5775 5776 5776 5777 5778 5778 5778 5778 5778 5777 5777 5776 5774 5773 5771 5769 5766 5763 5760 5757 5753 5750 5746 5742 5737 5733
5736 5738 5740 5742 5745 5747 5750 5752 5754 5756 5758 5760 5762 5764 5765 5767 5768 5769 5770 5770 5771 5771 5772 5772 5771 5771 5770 5769 5768 5767 5765 5762 5760 5757 5754 5751 5748 5744 5741 5737 5733 5728 5724
5731 5732 5735 5737 5739 5741 5743 5746 5748 5751 5753 5755 5756 5758 5759 5761 5762 5763 5763 5764 5764 5765 5765 5765 5764 5764 5763 5761 5760 5758 5756 5754 5751 5748 5745 5742 5739 5735 5732 5728 5724 5720 5716
5726 5728 5729 5731 5734 5736 5738 5740 5743 5745 5747 5749 5750 5752 5753 5754 5755 5756 5757 5757 5757 5757 5758 5757 5757 5756 5755 5753 5752 5750 5747 5745 5742 5739 5737 5733 5730 5727 5723 5719 5716 5713 5709
5721 5723 5725 5727 5729 5731 5733 5735 5737 5739 5741 5742 5744 5746 5747 5748 5749 5750 5750 5750 5750 5751 5751 5750 5749 5748 5747 5745 5743 5741 5739 5737 5734 5731 5728 5725 5722 5719 5715 5712 5709 5706 5703
5716 5718 5720 5722 5724 5726 5728 5730 5732 5733 5735 5737 5738 5740 5741 5742 5743 5744 5744 5744 5744 5744 5744 5743 5742 5740 5739 5737 5735 5733 5731 5728 5726 5723 5720 5717 5714 5711 5708 5706 5703 5700 5698
5711 5713 5715 5717 5719 5721 5723 5725 5726 5728 5730 5731 5732 5733 5735 5736 5736 5737 5737 5737 5737 5737 5736 5736 5735 5733 5731 5729 5727 5725 5723 5720 5718 5715 5712 5709 5707 5704 5702 5700 5697 5695 5693
5707 5709 5711 5713 5715 5717 5718 5720 5722 5723 5724 5726 5727 5728 5729 5730 5730 5730 5731 5730 5730 5730 5729 5728 5727 5726 5724 5722 5720 5718 5715 5713 5710 5708 5705 5703 5701 5698 5696 5694 5692 5690 5688
5704 5706 5707 5709 5710 5712 5714 5715 5717 5718 5719 5720 5721 5722 5723 5724 5724 5724 5724 5724 5723 5723 5722 5721 5720 5718 5717 5715 5713 5711 5709 5707 5704 5702 5700 5698 5695 5693 5691 5690 5688 5686 5684
5701 5703 5704 5706 5707 5708 5710 5711 5712 5713 5714 5716 5717 5717 5718 5718 5718 5718 5718 5717 5717 5716 5715 5714 5713 5712 5710 5709 5707 5705 5703 5701 5699 5697 5695 5693 5691 5689 5687 5685 5684 5682 5680
5698 5700 5701 5703 5704 5705 5707 5708 5709 5709 5710 5711 5712 5713 5713 5713 5713 5713 5712 5711 5711 5710 5709 5708 5707 5706 5705 5703 5701 5700 5698 5696 5694 5692 5690 5689 5687 5685 5683 5682 5680 5679 5677
5696 5697 5699 5700 5701 5702 5703 5704 5705 5706 5707 5707 5708 5708 5708 5708 5708 5708 5707 5706 5706 5705 5704 5703 5702 5701 5700 5698 5697 5695 5693 5691 5690 5688 5686 5685 5683 5681 5680 5678 5677 5675 5674
5694 5695 5696 5697 5698 5700 5701 5702 5702 5703 5703 5704 5704 5704 5704 5704 5704 5703 5703 5702 5702 5701 5700 5699 5698 5697 5695 5694 5692 5691 5689 5687 5686 5684 5683 5681 5680 5678 5677 5675 5674 5672 5671
5693 5694 5694 5695 5696 5697 5698 5699 5700 5700 5701 5701 5701 5701 5701 5700 5700 5700 5699 5699 5698 5697 5696 5695 5694 5693 5692 5690 5689 5687 5685 5684 5682 5681 5679 5678 5677 5675 5674 5673 5672 5670 5669
5691 5692 5693 5694 5695 5696 5696 5697 5697 5698 5698 5698 5698 5698 5698 5697 5697 5696 5696 5695 5694 5694 5693 5692 5691 5689 5688 5687 5685 5684 5682 5681 5679 5678 5677 5675 5674 5673 5672 5671 5670 5669 5668
5691 5691 5692 5693 5694 5694 5695 5695 5696 5696 5696 5696 5696 5695 5695 5695 5694 5693 5693 5693 5692 5691 5690 5689 5688 5687 5685 5684 5682 5681 5680 5678 5677 5675 5674 5673 5672 5671 5670 5669 5668 5667 5667
5690 5691 5691 5692 5693 5693 5694 5694 5695 5695 5695 5695 5694 5694 5694 5693 5693 5692 5692 5691 5690 5689 5688 5687 5686 5684 5683 5682 5680 5679 5677 5676 5675 5673 5672 5671 5671 5670 5669 5668 5667 5667 5666
5691 5691 5692 5692 5693 5693 5693 5694 5694 5694 5695 5695 5694 5694 5694 5693 5693 5692 5691 5691 5690 5689 5687 5686 5684 5683 5681 5680 5679 5677 5676 5674 5673 5672 5671 5670 5670 5669 5668 5668 5667 5667 5666
5691 5692 5692 5693 5693 5693 5694 5694 5694 5695 5695 5695 5695 5695 5694 5694 5693 5693 5692 5691 5690 5688 5687 5685 5684 5682 5681 5679 5678 5676 5675 5674 5672 5672 5671 5670 5669 5669 5668 5668 5668 5667 5667
5693 5693 5694 5694 5694 5695 5695 5695 5695 5696 5696 5696 5696 5696 5696 5695 5694 5693 5693 5691 5690 5689 5687 5686 5684 5682 5681 5679 5678 5676 5675 5674 5673 5672 5671 5671 5670 5669 5669 5669 5668 5668 5667
5695 5695 5695 5696 5696 5696 5696 5696 5697 5697 5698 5698 5698 5698 5697 5697 5696 5695 5694 5693 5692 5690 5688 5687 5685 5683 5682 5680 5679 5677 5676 5675 5674 5673 5672 5672 5671 5671 5670 5670 5669 5669 5668
5698 5698 5698 5698 5698 5698 5699 5699 5699 5700 5700 5700 5700 5700 5700 5699 5698 5698 5697 5695 5694 5692 5690 5689 5687 5685 5684 5682 5681 5680 5679 5677 5676 5675 5675 5674 5673 5673 5672 5671 5670 5670 5669
5702 5702 5702 5702 5702 5702 5702 5702 5703 5703 5703 5703 5703 5703 5702 5702 5701 5700 5699 5698 5696 5695 5693 5692 5690 5688 5687 5685 5684 5683 5681 5680 5679 5678 5677 5676 5675 5675 5674 5673 5672 5671 5670
5706 5706 5706 5706 5706 5706 5706 5706 5706 5706 5706 5706 5706 5706 5705 5705 5704 5703 5702 5701 5699 5698 5696 5695 5693 5691 5690 5688 5687 5686 5684 5683 5682 5681 5680 5679 5678 5677 5676 5674 5673 5672 5670
5712 5711 5711 5711 5711 5710 5710 5710 5710 5710 5710 5710 5709 5709 5708 5708 5707 5706 5705 5704 5702 5701 5699 5698 5696 5694 5693 5691 5690 5688 5687 5686 5684 5683 5682 5680 5679 5678 5677 5675 5673 5672 5670